User: anonymous   Login
Location: Newark
(23.5328°S, 46.7919°W)
Time: 13:59:41
(UTC+00:00)
Language:

N. Korean satellite - Orbit

View from above orbital plane
View from above orbital plane
View from above satellite
View from above satellite

Ground track
Ground track

The orbit data is extracted from the following two-line orbital elements,

1 39026U 12072A   21107.07569880  .00001899  00000-0  67034-4 0  9997
2 39026  97.2435 101.4543 0034197 241.7787 117.9999 15.29923271463706
Epoch (UTC): 17 April 2021 01:49:00
Eccentricity: 0.0034197
inclination: 97.2435°
perigee height: 452 km
apogee height: 499 km
right ascension of ascending node: 101.4543°
argument of perigee: 241.7787°
revolutions per day: 15.29923271
mean anomaly at epoch: 117.9999°
orbit number at epoch: 46370

The dashed part of the orbit path shows where the satellite is in the earth's shadow,  

DLR